| time (UTC) | temp F | wind direction | speed MPH | gust MPH | rain 1hr in | rain 24hr in | rain mn in | humidity % | barometer mb |
| 20260906140304 | 71 | 355 | 2.0 | 10.0 | 0.00 | 0.00 | 0.00 | 79 | 1016.5 |
| 20260906135804 | 71 | 44 | 4.0 | 9.0 | 0.00 | 0.00 | 0.00 | 80 | 1016.5 |
| 20260906133803 | 70 | 24 | 2.0 | 7.0 | 0.00 | 0.00 | 0.00 | 82 | 1016.5 |
| 20260906133304 | 70 | 20 | 1.0 | 3.0 | 0.00 | 0.00 | 0.00 | 84 | 1016.4 |
| 20260906132804 | 69 | 37 | 2.0 | 5.0 | 0.00 | 0.00 | 0.00 | 84 | 1016.4 |
| 20260906131804 | 69 | 82 | 1.0 | 8.0 | 0.00 | 0.00 | 0.00 | 84 | 1016.4 |
| 20260906131304 | 69 | 55 | 3.0 | 8.0 | 0.00 | 0.00 | 0.00 | 85 | 1016.4 |
| 20260906130304 | 68 | 69 | 2.0 | 6.0 | 0.00 | 0.00 | 0.00 | 85 | 1016.3 |
| 20260906125306 | 68 | 20 | 2.0 | 7.0 | 0.00 | 0.00 | 0.00 | 86 | 1016.4 |
| 20260906124803 | 68 | 38 | 1.0 | 6.0 | 0.00 | 0.00 | 0.00 | 86 | 1016.4 |
| 20260906124304 | 67 | 58 | 2.0 | 6.0 | 0.00 | 0.00 | 0.00 | 88 | 1016.3 |
| 20260906123304 | 66 | 133 | 1.0 | 6.0 | 0.00 | 0.00 | 0.00 | 88 | 1016.2 |
| 20260906122804 | 66 | 333 | 0.0 | 3.0 | 0.00 | 0.00 | 0.00 | 89 | 1016.1 |
| 20260906121805 | 66 | 329 | 0.0 | 3.0 | 0.00 | 0.00 | 0.00 | 90 | 1016.0 |
| 20260906115804 | 64 | 275 | 0.0 | 2.0 | 0.00 | 0.00 | 0.00 | 92 | 1015.8 |
| 20260906114804 | 63 | 240 | 0.0 | 2.0 | 0.00 | 0.00 | 0.00 | 94 | 1015.6 |
| 20260906114304 | 63 | 242 | 0.0 | 3.0 | 0.00 | 0.00 | 0.00 | 96 | 1015.7 |
| 20260906113304 | 61 | 241 | 1.0 | 3.0 | 0.00 | 0.00 | 0.00 | 97 | 1015.5 |
| 20260906111304 | 60 | 285 | 0.0 | 1.0 | 0.00 | 0.00 | 0.00 | 96 | 1015.3 |
| 20260906110304 | 60 | 285 | 0.0 | 1.0 | 0.00 | 0.00 | 0.00 | 96 | 1015.3 |
| 20260906105804 | 60 | 285 | 0.0 | 2.0 | 0.00 | 0.00 | 0.00 | 96 | 1015.2 |
| 20260906104803 | 60 | 285 | 0.0 | 2.0 | 0.00 | 0.00 | 0.00 | 96 | 1015.1 |
| 20260906104303 | 60 | 310 | 0.0 | 0.0 | 0.00 | 0.00 | 0.00 | 96 | 1015.0 |
| 20260906103804 | 60 | 310 | 0.0 | 0.0 | 0.00 | 0.00 | 0.00 | 96 | 1014.9 |
| 20260906103305 | 60 | 310 | 0.0 | 0.0 | 0.00 | 0.00 | 0.00 | 96 | 1014.7 |
| 20260906101803 | 60 | 310 | 0.0 | 0.0 | 0.00 | 0.00 | 0.00 | 95 | 1014.5 |
| 20260906100305 | 61 | 310 | 0.0 | 0.0 | 0.00 | 0.00 | 0.00 | 95 | 1014.4 |
| 20260906095807 | 61 | 310 | 0.0 | 1.0 | 0.00 | 0.00 | 0.00 | 95 | 1014.4 |
| 20260906095306 | 61 | 310 | 0.0 | 2.0 | 0.00 | 0.00 | 0.00 | 94 | 1014.3 |
| 20260906093805 | 61 | 319 | 0.0 | 1.0 | 0.00 | 0.00 | 0.00 | 94 | 1014.3 |
| 20260906093305 | 61 | 319 | 0.0 | 3.0 | 0.00 | 0.00 | 0.00 | 95 | 1014.2 |
| 20260906092805 | 61 | 319 | 0.0 | 3.0 | 0.00 | 0.00 | 0.00 | 95 | 1014.1 |
| 20260906091804 | 61 | 248 | 0.0 | 1.0 | 0.00 | 0.00 | 0.00 | 95 | 1014.1 |
| 20260906091304 | 61 | 248 | 0.0 | 1.0 | 0.00 | 0.00 | 0.00 | 94 | 1014.0 |
| 20260906090306 | 61 | 248 | 0.0 | 2.0 | 0.00 | 0.00 | 0.00 | 94 | 1013.9 |
| 20260906085805 | 61 | 248 | 0.0 | 2.0 | 0.00 | 0.00 | 0.00 | 94 | 1013.9 |
| 20260906085306 | 61 | 248 | 1.0 | 3.0 | 0.00 | 0.00 | 0.00 | 94 | 1013.8 |
| 20260906084805 | 61 | 247 | 0.0 | 3.0 | 0.00 | 0.00 | 0.00 | 94 | 1013.8 |
| 20260906084304 | 61 | 252 | 0.0 | 3.0 | 0.00 | 0.00 | 0.00 | 94 | 1013.9 |
| 20260906083805 | 61 | 258 | 1.0 | 3.0 | 0.00 | 0.00 | 0.00 | 94 | 1013.8 |
| 20260906083306 | 61 | 288 | 1.0 | 3.0 | 0.00 | 0.00 | 0.00 | 94 | 1013.8 |
| 20260906082307 | 62 | 298 | 0.0 | 0.0 | 0.00 | 0.00 | 0.00 | 95 | 1013.8 |
| 20260906081805 | 62 | 298 | 0.0 | 0.0 | 0.00 | 0.00 | 0.00 | 95 | 1013.8 |
| 20260906080805 | 61 | 298 | 0.0 | 0.0 | 0.00 | 0.00 | 0.00 | 94 | 1013.6 |
| 20260906080305 | 61 | 298 | 0.0 | 0.0 | 0.00 | 0.00 | 0.00 | 94 | 1013.5 |
| 20260906075805 | 62 | 298 | 0.0 | 0.0 | 0.00 | 0.00 | 0.00 | 94 | 1013.4 |
| 20260906075306 | 61 | 298 | 0.0 | 0.0 | 0.00 | 0.00 | 0.00 | 94 | 1013.5 |
| 20260906073804 | 61 | 298 | 0.0 | 0.0 | 0.00 | 0.00 | 0.00 | 94 | 1013.3 |
| 20260906072804 | 61 | 298 | 0.0 | 0.0 | 0.00 | 0.00 | 0.00 | 94 | 1013.3 |
| 20260906070804 | 61 | 298 | 0.0 | 0.0 | 0.00 | 0.00 | 0.00 | 94 | 1013.4 |
| 20260906065805 | 62 | 298 | 0.0 | 0.0 | 0.00 | 0.00 | 0.00 | 95 | 1013.5 |
| 20260906064804 | 62 | 298 | 0.0 | 0.0 | 0.00 | 0.00 | 0.00 | 95 | 1013.5 |
| 20260906064305 | 61 | 298 | 0.0 | 0.0 | 0.00 | 0.00 | 0.00 | 95 | 1013.6 |
| 20260906062306 | 62 | 298 | 0.0 | 0.0 | 0.00 | 0.00 | 0.00 | 95 | 1013.5 |
| 20260906061304 | 62 | 298 | 0.0 | 0.0 | 0.00 | 0.00 | 0.00 | 95 | 1013.6 |
| 20260906060805 | 62 | 298 | 0.0 | 0.0 | 0.00 | 0.00 | 0.00 | 95 | 1013.6 |
| 20260906054804 | 62 | 298 | 0.0 | 0.0 | 0.00 | 0.00 | 0.00 | 96 | 1013.8 |
| 20260906053305 | 63 | 298 | 0.0 | 0.0 | 0.00 | 0.00 | 0.00 | 96 | 1013.7 |
| 20260906052306 | 63 | 298 | 0.0 | 0.0 | 0.00 | 0.00 | 0.00 | 96 | 1013.9 |
| 20260906050305 | 63 | 298 | 0.0 | 0.0 | 0.00 | 0.00 | 0.00 | 96 | 1014.0 |
| 20260906044305 | 63 | 298 | 0.0 | 0.0 | 0.00 | 0.00 | 0.00 | 96 | 1014.1 |
| 20260906043806 | 63 | 298 | 0.0 | 0.0 | 0.00 | 0.00 | 0.00 | 96 | 1014.0 |
| 20260906043304 | 63 | 298 | 0.0 | 0.0 | 0.00 | 0.00 | 0.00 | 96 | 1014.1 |
| 20260906042805 | 63 | 298 | 0.0 | 1.0 | 0.00 | 0.00 | 0.00 | 96 | 1014.1 |
| 20260906035806 | 64 | 298 | 0.0 | 1.0 | 0.00 | 0.00 | 0.00 | 95 | 1014.0 |
| 20260906035306 | 64 | 298 | 0.0 | 1.0 | 0.00 | 0.00 | 0.00 | 95 | 1014.1 |
| 20260906034306 | 64 | 298 | 0.0 | 1.0 | 0.00 | 0.00 | 0.00 | 95 | 1014.2 |
| 20260906033305 | 64 | 298 | 0.0 | 1.0 | 0.00 | 0.00 | 0.00 | 95 | 1014.2 |
| 20260906032306 | 64 | 298 | 0.0 | 1.0 | 0.00 | 0.00 | 0.00 | 96 | 1014.1 |
| 20260906031305 | 64 | 298 | 0.0 | 1.0 | 0.00 | 0.00 | 0.00 | 95 | 1014.1 |
| 20260906030805 | 64 | 298 | 0.0 | 1.0 | 0.00 | 0.00 | 0.00 | 95 | 1014.0 |
| 20260906030305 | 64 | 298 | 0.0 | 0.0 | 0.00 | 0.00 | 0.00 | 95 | 1013.9 |
| 20260906025806 | 65 | 298 | 0.0 | 1.0 | 0.00 | 0.00 | 0.00 | 95 | 1014.0 |
| 20260906025306 | 65 | 298 | 0.0 | 1.0 | 0.00 | 0.00 | 0.00 | 95 | 1014.0 |
| 20260906024305 | 65 | 298 | 0.0 | 1.0 | 0.00 | 0.00 | 0.00 | 95 | 1014.1 |
| 20260906023805 | 65 | 298 | 0.0 | 1.0 | 0.00 | 0.00 | 0.00 | 95 | 1014.0 |
| 20260906023305 | 65 | 298 | 0.0 | 1.0 | 0.00 | 0.00 | 0.00 | 95 | 1014.0 |
| 20260906022804 | 65 | 298 | 0.0 | 1.0 | 0.00 | 0.00 | 0.00 | 95 | 1013.9 |
| 20260906022307 | 65 | 298 | 0.0 | 0.0 | 0.00 | 0.00 | 0.00 | 95 | 1014.0 |
| 20260906015306 | 65 | 298 | 0.0 | 0.0 | 0.00 | 0.00 | 0.00 | 95 | 1013.4 |
| 20260906014805 | 66 | 298 | 0.0 | 0.0 | 0.00 | 0.00 | 0.00 | 94 | 1013.3 |
| 20260906013806 | 66 | 298 | 0.0 | 0.0 | 0.00 | 0.00 | 0.00 | 94 | 1013.3 |
| 20260906013305 | 66 | 298 | 0.0 | 0.0 | 0.00 | 0.00 | 0.00 | 94 | 1013.3 |
| 20260906012804 | 66 | 298 | 0.0 | 0.0 | 0.00 | 0.00 | 0.00 | 94 | 1013.3 |
| 20260906005306 | 67 | 298 | 0.0 | 0.0 | 0.00 | 0.00 | 0.00 | 92 | 1013.1 |
| 20260906002306 | 68 | 298 | 0.0 | 0.0 | 0.00 | 0.00 | 0.00 | 91 | 1012.8 |
| 20260906001804 | 69 | 298 | 0.0 | 0.0 | 0.00 | 0.00 | 0.00 | 90 | 1012.8 |
| 20260906001305 | 69 | 298 | 0.0 | 0.0 | 0.00 | 0.00 | 0.00 | 89 | 1012.8 |
| 20260906000805 | 69 | 298 | 0.0 | 0.0 | 0.00 | 0.00 | 0.00 | 88 | 1012.7 |
| 20260905235805 | 70 | 298 | 0.0 | 0.0 | 0.00 | 0.00 | 0.00 | 86 | 1012.6 |
| 20260905235306 | 70 | 298 | 0.0 | 0.0 | 0.00 | 0.00 | 0.00 | 86 | 1012.5 |
| 20260905234305 | 71 | 298 | 0.0 | 0.0 | 0.00 | 0.00 | 0.00 | 84 | 1012.5 |
| 20260905233806 | 71 | 298 | 0.0 | 0.0 | 0.00 | 0.00 | 0.00 | 82 | 1012.4 |
| 20260905233304 | 72 | 298 | 0.0 | 0.0 | 0.00 | 0.00 | 0.00 | 82 | 1012.3 |
| 20260905232306 | 72 | 298 | 0.0 | 0.0 | 0.00 | 0.00 | 0.00 | 78 | 1012.2 |
| 20260905225804 | 75 | 298 | 0.0 | 0.0 | 0.00 | 0.00 | 0.00 | 74 | 1012.2 |
| 20260905225306 | 75 | 298 | 0.0 | 0.0 | 0.00 | 0.00 | 0.00 | 74 | 1012.2 |
| 20260905224804 | 75 | 298 | 0.0 | 0.0 | 0.00 | 0.00 | 0.00 | 72 | 1012.3 |
| 20260905224306 | 75 | 298 | 0.0 | 2.0 | 0.00 | 0.00 | 0.00 | 74 | 1012.2 |
| 20260905223805 | 76 | 299 | 0.0 | 3.0 | 0.00 | 0.00 | 0.00 | 72 | 1012.2 |
| 20260905223304 | 76 | 299 | 1.0 | 3.0 | 0.00 | 0.00 | 0.00 | 72 | 1012.2 |
| 20260905222306 | 76 | 300 | 1.0 | 3.0 | 0.00 | 0.00 | 0.00 | 71 | 1012.1 |
| 20260905221804 | 77 | 314 | 0.0 | 2.0 | 0.00 | 0.00 | 0.00 | 72 | 1012.1 |
| 20260905221304 | 77 | 324 | 1.0 | 3.0 | 0.00 | 0.00 | 0.00 | 69 | 1011.9 |
| 20260905220304 | 78 | 329 | 0.0 | 2.0 | 0.00 | 0.00 | 0.00 | 69 | 1011.8 |
| 20260905215306 | 79 | 0 | 1.0 | 6.0 | 0.00 | 0.00 | 0.00 | 66 | 1011.6 |
| 20260905213805 | 79 | 347 | 1.0 | 3.0 | 0.00 | 0.00 | 0.00 | 67 | 1011.5 |
| 20260905211804 | 79 | 78 | 2.0 | 5.0 | 0.00 | 0.00 | 0.00 | 71 | 1011.3 |
| 20260905210304 | 79 | 339 | 1.0 | 3.0 | 0.00 | 0.00 | 0.00 | 69 | 1011.3 |
| 20260905204806 | 78 | 108 | 2.0 | 3.0 | 0.00 | 0.00 | 0.00 | 70 | 1011.4 |
| 20260905204305 | 79 | 38 | 1.0 | 3.0 | 0.00 | 0.00 | 0.00 | 72 | 1011.5 |
| 20260905203805 | 79 | 41 | 1.0 | 3.0 | 0.00 | 0.00 | 0.00 | 71 | 1011.4 |
| 20260905203304 | 79 | 33 | 2.0 | 3.0 | 0.00 | 0.00 | 0.00 | 71 | 1011.5 |
| 20260905202306 | 80 | 63 | 2.0 | 5.0 | 0.00 | 0.00 | 0.00 | 68 | 1011.4 |
| 20260905201305 | 82 | 42 | 5.0 | 8.0 | 0.00 | 0.00 | 0.00 | 66 | 1011.4 |
| 20260905200304 | 81 | 13 | 2.0 | 7.0 | 0.00 | 0.00 | 0.00 | 66 | 1011.5 |
| 20260905195804 | 81 | 25 | 2.0 | 7.0 | 0.00 | 0.00 | 0.00 | 66 | 1011.5 |
| 20260905194805 | 81 | 334 | 2.0 | 8.0 | 0.00 | 0.00 | 0.00 | 65 | 1011.5 |
| 20260905194305 | 81 | 296 | 4.0 | 8.0 | 0.00 | 0.00 | 0.00 | 64 | 1011.5 |
| 20260905192805 | 80 | 79 | 3.0 | 10.0 | 0.00 | 0.00 | 0.00 | 67 | 1011.7 |
| 20260905191804 | 81 | 288 | 6.0 | 12.0 | 0.00 | 0.00 | 0.00 | 66 | 1011.7 |
| 20260905190304 | 79 | 321 | 1.0 | 6.0 | 0.00 | 0.00 | 0.00 | 68 | 1012.0 |
| 20260905185806 | 79 | 266 | 1.0 | 7.0 | 0.00 | 0.00 | 0.00 | 69 | 1012.1 |
| 20260905184305 | 80 | 36 | 3.0 | 5.0 | 0.00 | 0.00 | 0.00 | 68 | 1012.3 |
| 20260905182804 | 81 | 57 | 3.0 | 6.0 | 0.00 | 0.00 | 0.00 | 66 | 1012.4 |
| 20260905182306 | 81 | 7 | 1.0 | 6.0 | 0.00 | 0.00 | 0.00 | 68 | 1012.3 |
| 20260905181804 | 80 | 258 | 3.0 | 6.0 | 0.00 | 0.00 | 0.00 | 70 | 1012.5 |
| 20260905181304 | 79 | 358 | 2.0 | 5.0 | 0.00 | 0.00 | 0.00 | 71 | 1012.5 |
| 20260905180304 | 78 | 299 | 2.0 | 6.0 | 0.00 | 0.00 | 0.00 | 69 | 1012.5 |
| 20260905175804 | 79 | 34 | 2.0 | 7.0 | 0.00 | 0.00 | 0.00 | 71 | 1012.6 |
| 20260905175306 | 79 | 54 | 2.0 | 7.0 | 0.00 | 0.00 | 0.00 | 70 | 1012.6 |
| 20260905174805 | 79 | 27 | 2.0 | 7.0 | 0.00 | 0.00 | 0.00 | 71 | 1012.5 |
| 20260905171806 | 78 | 358 | 0.0 | 3.0 | 0.00 | 0.00 | 0.00 | 68 | 1012.9 |
| 20260905171306 | 79 | 344 | 1.0 | 3.0 | 0.00 | 0.00 | 0.00 | 71 | 1013.0 |
| 20260905170305 | 77 | 311 | 1.0 | 5.0 | 0.00 | 0.00 | 0.00 | 73 | 1013.1 |
| 20260905164305 | 77 | 342 | 1.0 | 3.0 | 0.00 | 0.00 | 0.00 | 74 | 1013.1 |
| 20260905163804 | 78 | 355 | 1.0 | 3.0 | 0.00 | 0.00 | 0.00 | 76 | 1013.2 |
| 20260905161804 | 77 | 327 | 2.0 | 7.0 | 0.00 | 0.00 | 0.00 | 70 | 1013.4 |
| 20260905160807 | 78 | 288 | 2.0 | 6.0 | 0.00 | 0.00 | 0.00 | 70 | 1013.5 |
| 20260905160305 | 77 | 270 | 2.0 | 6.0 | 0.00 | 0.00 | 0.00 | 71 | 1013.6 |
| 20260905154304 | 77 | 60 | 0.0 | 3.0 | 0.00 | 0.00 | 0.00 | 72 | 1013.7 |
| 20260905153304 | 76 | 215 | 1.0 | 3.0 | 0.00 | 0.00 | 0.00 | 75 | 1013.7 |
| 20260905151806 | 75 | 299 | 0.0 | 0.0 | 0.00 | 0.00 | 0.00 | 80 | 1013.6 |
| 20260905150804 | 75 | 299 | 0.0 | 3.0 | 0.00 | 0.00 | 0.00 | 80 | 1013.7 |
| 20260905150304 | 75 | 299 | 1.0 | 3.0 | 0.00 | 0.00 | 0.00 | 76 | 1013.7 |
| 20260905145806 | 75 | 303 | 0.0 | 3.0 | 0.00 | 0.00 | 0.00 | 76 | 1013.7 |
| 20260905143805 | 75 | 87 | 2.0 | 5.0 | 0.00 | 0.00 | 0.00 | 77 | 1013.4 |
| 20260905143304 | 75 | 103 | 2.0 | 5.0 | 0.00 | 0.00 | 0.00 | 78 | 1013.4 |
| 20260905142805 | 75 | 37 | 3.0 | 6.0 | 0.00 | 0.00 | 0.00 | 79 | 1013.3 |
| 20260905142306 | 75 | 51 | 3.0 | 6.0 | 0.00 | 0.00 | 0.00 | 79 | 1013.3 |
| 20260905141806 | 75 | 57 | 2.0 | 12.0 | 0.00 | 0.00 | 0.00 | 79 | 1013.3 |